Regional Weather Roundup
Issued by NWS

Home | Current Version | Previous Version | Text Only | Print | Product List | Glossary Off
Versions: 1 2 3 4 5 6 7 8 9 10 11 12 13 14 15 16 17 18 19 20 21 22 23 24 25 26 27 28 29 30 31 32 33 34 35 36 37 38 39 40 41 42 43 44 45 46 47 48 49 50

000
ASUS45 KCYS 061510
RWRWY

WYOMING REGIONAL WEATHER ROUNDUP
NATIONAL WEATHER SERVICE CHEYENNE WY
900 AM MDT WED MAY 06 2015

NOTE:  "FAIR" INDICATES FEW OR NO CLOUDS BELOW 12,000 FEET
WITH NO SIGNIFICANT WEATHER AND/OR OBSTRUCTIONS TO VISIBILITY.

WYZ001-061600-
YELLOWSTONE NATIONAL PARK

CITY           SKY/WX    TMP DP  RH WIND       PRES   REMARKS
LK YELLOWSTONE   N/A     38  35  89 E5        29.90S WCI  34
W YELLOWSTONE  NOT AVBL

$$
WYZ002>013-054>058-071-098>099-061600-
NORTHERN WYOMING

CITY           SKY/WX    TMP DP  RH WIND       PRES   REMARKS
JACKSON        PTSUNNY   45  39  81 CALM      29.86S
CODY           CLOUDY    48  43  81 N20       29.82S
GREYBULL       LGT RAIN  55  48  77 NW15      29.73R
WORLAND        LGT RAIN  54  49  83 NW13      29.75R
SHERIDAN       RAIN      49  47  93 NW17      29.79R FOG
BUFFALO        CLOUDY    50  45  83 N26G39    29.76F
GILLETTE       CLOUDY    50  47  89 NW10      29.71R
HULETT         DRIZZLE   54  52  94 CALM      29.73S
NEWCASTLE      RAIN      52  52 100 S3        29.73R

$$
WYZ014>020-022>026-101>103-061600-
CENTRAL WYOMING

CITY           SKY/WX    TMP DP  RH WIND       PRES   REMARKS
BIG PINEY      CLOUDY    51  29  42 N13       29.83F
PINEDALE       PTSUNNY   48  37  66 NW16      29.82F
DUBOIS         FAIR      50  32  50 NW12G20   29.81F
LANDER         LGT RAIN  49  46  90 NE8       29.78R
RIVERTON       LGT RAIN  49  45  86 N17       29.79R
CASPER         CLOUDY    52  46  80 NE7       29.75S
DOUGLAS        CLOUDY    52  49  89 NW5       29.73S

$$
WYZ021-027>030-104>119-061600-
SOUTHERN WYOMING

CITY           SKY/WX    TMP DP  RH WIND       PRES   REMARKS
EVANSTON       CLOUDY    45  43  93 SW8       29.88R
KEMMERER       FAIR      46  36  66 W16       29.86S
FORT BRIDGER   MOSUNNY   48  41  76 W14       29.89S
ROCK SPRINGS   FAIR      50  41  71 W13       29.82S
DIXON          CLOUDY    50  46  86 SW6       29.83S
RAWLINS        CLOUDY    49  43  80 SW6       29.80R
SARATOGA       DRIZZLE   46  43  87 CALM      29.81S
LARAMIE        CLOUDY    45  41  86 N5        29.78R
CHEYENNE       LGT RAIN  49  46  90 N7        29.72S
TORRINGTON     RAIN      53  52  96 NW6       29.67F FOG
PINE BLUFFS    DRIZZLE   50  48  93 CALM      29.69S

$$


USA.gov is the U.S. government's official web portal to all federal, state and local government web resources and services.